Location: Azul
(36.7830°S, 59.8500°W)
Time: 00:27:14
(UTC-03:00)

FO-29 - Pass Details

Date: 27 October 2021
Orbit: 799 x 1322 km, 98.5° (Epoch: 28 November)

Event Time Altitude Azimuth Distance (km) Brightness Sun altitude
Rises 00:03:19 0° 185° (S) 4,114 13.6 -39.5°
Reaches altitude 10° 00:06:56 10° 203° (SSW) 3,223 12.9 -39.7°
Maximum altitude 00:11:24 17° 240° (WSW) 2,770 12.1 -39.8°
Enters shadow 00:15:32 11° 274° (W) 3,237 12.2 -40.0°
